Time,TemperatureF,DewpointF,PressureIn,WindDirection,WindDirectionDegrees,WindSpeedMPH,WindSpeedGustMPH,Humidity,HourlyPrecipIn,Conditions,Clouds,dailyrainin,SoftwareType,DateUTC
2013-03-27 00:03:00,26.0,22.0,29.98,NE,49,0.0,0.0,83,0.00,,,0.00,,2013-03-27 04:03:00,
2013-03-27 00:13:00,26.0,22.0,29.98,NE,49,0.0,0.0,83,0.00,,,0.00,,2013-03-27 04:13:00,
2013-03-27 00:23:00,26.0,22.0,29.98,NE,49,0.0,0.0,83,0.00,,,0.00,,2013-03-27 04:23:00,
2013-03-27 00:33:00,26.0,22.0,29.98,NE,49,0.0,0.0,84,0.00,,,0.00,,2013-03-27 04:33:00,
2013-03-27 00:43:00,26.0,22.0,29.98,NE,49,0.0,0.0,84,0.00,,,0.00,,2013-03-27 04:43:00,
2013-03-27 00:53:00,25.0,21.0,29.98,NE,49,0.0,0.0,85,0.00,,,0.00,,2013-03-27 04:53:00,
2013-03-27 01:03:00,25.0,21.0,29.98,NE,49,0.0,0.0,85,0.00,,,0.00,,2013-03-27 05:03:00,
2013-03-27 01:12:00,25.0,21.0,29.98,NE,49,0.0,0.0,85,0.00,,,0.00,,2013-03-27 05:12:00,
2013-03-27 01:23:00,25.0,21.0,29.98,NE,49,0.0,0.0,85,0.00,,,0.00,,2013-03-27 05:23:00,
2013-03-27 01:33:00,25.0,21.0,29.98,NE,51,0.0,1.0,86,0.00,,,0.00,,2013-03-27 05:33:00,
2013-03-27 01:42:00,25.0,21.0,29.98,NE,51,0.0,1.0,86,0.00,,,0.00,,2013-03-27 05:42:00,
2013-03-27 01:52:00,25.0,21.0,29.98,NE,52,0.0,0.0,86,0.00,,,0.00,,2013-03-27 05:52:00,
2013-03-27 02:02:00,24.0,20.0,29.97,NE,53,0.0,0.0,86,0.00,,,0.00,,2013-03-27 06:02:00,
2013-03-27 02:12:00,24.0,20.0,29.97,NE,53,0.0,0.0,86,0.00,,,0.00,,2013-03-27 06:12:00,
2013-03-27 02:22:00,24.0,20.0,29.97,NE,52,0.0,0.0,86,0.00,,,0.00,,2013-03-27 06:22:00,
2013-03-27 02:32:00,24.0,21.0,29.97,NE,52,0.0,0.0,87,0.00,,,0.00,,2013-03-27 06:32:00,
2013-03-27 02:42:00,24.0,21.0,29.97,NE,52,0.0,0.0,87,0.00,,,0.00,,2013-03-27 06:42:00,
2013-03-27 02:52:00,23.0,20.0,29.97,NE,53,0.0,0.0,88,0.00,,,0.00,,2013-03-27 06:52:00,
2013-03-27 03:02:00,23.0,20.0,29.97,NE,52,0.0,0.0,88,0.00,,,0.00,,2013-03-27 07:02:00,
2013-03-27 03:12:00,23.0,20.0,29.97,NE,52,0.0,0.0,88,0.00,,,0.00,,2013-03-27 07:12:00,
2013-03-27 03:22:00,23.0,20.0,29.97,NE,53,0.0,0.0,88,0.00,,,0.00,,2013-03-27 07:22:00,
2013-03-27 03:32:00,23.0,20.0,29.97,NE,52,0.0,0.0,88,0.00,,,0.00,,2013-03-27 07:32:00,
2013-03-27 03:43:00,23.0,20.0,29.97,NE,52,0.0,0.0,88,0.00,,,0.00,,2013-03-27 07:43:00,
2013-03-27 03:53:00,22.0,19.0,29.97,NE,53,0.0,0.0,89,0.00,,,0.00,,2013-03-27 07:53:00,
2013-03-27 04:02:00,22.0,19.0,29.97,NE,52,0.0,0.0,89,0.00,,,0.00,,2013-03-27 08:02:00,
2013-03-27 04:13:00,22.0,19.0,29.97,NE,52,0.0,0.0,89,0.00,,,0.00,,2013-03-27 08:13:00,
2013-03-27 04:22:00,22.0,19.0,29.96,NE,52,0.0,0.0,89,0.00,,,0.00,,2013-03-27 08:22:00,
2013-03-27 04:32:00,22.0,19.0,29.96,NE,53,0.0,0.0,89,0.00,,,0.00,,2013-03-27 08:32:00,
2013-03-27 04:43:00,22.0,19.0,29.96,NE,53,0.0,0.0,89,0.00,,,0.00,,2013-03-27 08:43:00,
2013-03-27 04:52:00,22.0,20.0,29.96,NE,53,0.0,0.0,90,0.00,,,0.00,,2013-03-27 08:52:00,
2013-03-27 05:02:00,22.0,19.0,29.96,NE,52,0.0,0.0,89,0.00,,,0.00,,2013-03-27 09:02:00,
2013-03-27 05:12:00,22.0,19.0,29.96,NE,52,0.0,0.0,89,0.00,,,0.00,,2013-03-27 09:12:00,
2013-03-27 05:22:00,21.0,18.0,29.97,NE,52,0.0,0.0,89,0.00,,,0.00,,2013-03-27 09:22:00,
2013-03-27 05:33:00,21.0,19.0,29.97,NE,52,0.0,0.0,90,0.00,,,0.00,,2013-03-27 09:33:00,
2013-03-27 05:42:00,21.0,19.0,29.97,NE,52,0.0,0.0,90,0.00,,,0.00,,2013-03-27 09:42:00,
2013-03-27 05:52:00,21.0,19.0,29.98,NE,53,0.0,0.0,90,0.00,,,0.00,,2013-03-27 09:52:00,
2013-03-27 06:03:00,21.0,19.0,29.98,NE,52,0.0,0.0,91,0.00,,,0.00,,2013-03-27 10:03:00,
2013-03-27 06:13:00,21.0,19.0,29.98,NE,52,0.0,0.0,91,0.00,,,0.00,,2013-03-27 10:13:00,
2013-03-27 06:23:00,21.0,19.0,29.98,NE,52,0.0,0.0,90,0.00,,,0.00,,2013-03-27 10:23:00,
2013-03-27 06:32:00,20.0,18.0,29.98,NE,52,0.0,0.0,91,0.00,,,0.00,,2013-03-27 10:32:00,
2013-03-27 06:42:00,20.0,18.0,29.98,NE,52,0.0,0.0,91,0.00,,,0.00,,2013-03-27 10:42:00,
2013-03-27 06:52:00,21.0,19.0,29.99,NE,53,0.0,0.0,90,0.00,,,0.00,,2013-03-27 10:52:00,
2013-03-27 07:03:00,21.0,19.0,29.98,NE,52,0.0,0.0,90,0.00,,,0.00,,2013-03-27 11:03:00,
2013-03-27 07:12:00,21.0,19.0,29.98,NE,52,0.0,0.0,90,0.00,,,0.00,,2013-03-27 11:12:00,
2013-03-27 07:22:00,20.0,18.0,29.99,NE,52,0.0,0.0,90,0.00,,,0.00,,2013-03-27 11:22:00,
2013-03-27 07:32:00,21.0,19.0,29.99,NE,52,0.0,0.0,90,0.00,,,0.00,,2013-03-27 11:32:00,
2013-03-27 07:42:00,21.0,19.0,29.99,NE,52,0.0,0.0,90,0.00,,,0.00,,2013-03-27 11:42:00,
2013-03-27 07:52:00,22.0,20.0,29.99,NE,52,0.0,0.0,90,0.00,,,0.00,,2013-03-27 11:52:00,
2013-03-27 08:02:00,23.0,20.0,30.00,NE,52,0.0,0.0,88,0.00,,,0.00,,2013-03-27 12:02:00,
2013-03-27 08:12:00,23.0,20.0,30.00,NE,52,0.0,0.0,88,0.00,,,0.00,,2013-03-27 12:12:00,
2013-03-27 08:23:00,25.0,22.0,30.00,NE,52,0.0,0.0,87,0.00,,,0.00,,2013-03-27 12:23:00,
2013-03-27 08:32:00,27.0,23.0,30.00,ENE,72,0.0,0.0,83,0.00,,,0.00,,2013-03-27 12:32:00,
2013-03-27 08:43:00,27.0,23.0,30.00,ENE,72,0.0,0.0,83,0.00,,,0.00,,2013-03-27 12:43:00,
2013-03-27 08:52:00,30.0,24.0,30.00,SE,135,0.0,0.0,77,0.00,,,0.00,,2013-03-27 12:52:00,
2013-03-27 09:02:00,33.0,26.0,30.00,SE,136,0.0,0.0,75,0.00,,,0.00,,2013-03-27 13:02:00,
2013-03-27 09:12:00,33.0,26.0,30.00,SE,136,0.0,0.0,75,0.00,,,0.00,,2013-03-27 13:12:00,
2013-03-27 09:22:00,36.0,27.0,29.99,ESE,112,0.0,0.0,69,0.00,,,0.00,,2013-03-27 13:22:00,
2013-03-27 09:32:00,38.0,25.0,29.99,North,360,0.0,0.0,59,0.00,,,0.00,,2013-03-27 13:32:00,
2013-03-27 09:42:00,38.0,25.0,29.99,North,360,0.0,0.0,59,0.00,,,0.00,,2013-03-27 13:42:00,
2013-03-27 09:52:00,38.0,25.0,29.99,North,360,0.0,0.0,59,0.00,,,0.00,,2013-03-27 13:52:00,
2013-03-27 10:02:00,38.0,25.0,29.99,West,259,0.0,3.0,59,0.00,,,0.00,,2013-03-27 14:02:00,
2013-03-27 10:12:00,38.0,25.0,29.99,West,259,0.0,3.0,59,0.00,,,0.00,,2013-03-27 14:12:00,
2013-03-27 10:22:00,39.0,25.0,29.99,WSW,256,1.0,2.0,56,0.00,,,0.00,,2013-03-27 14:22:00,
2013-03-27 10:32:00,40.0,25.0,29.99,West,259,1.0,4.0,54,0.00,,,0.00,,2013-03-27 14:32:00,
2013-03-27 10:42:00,40.0,25.0,29.99,West,259,1.0,4.0,54,0.00,,,0.00,,2013-03-27 14:42:00,
2013-03-27 10:52:00,42.0,26.0,29.98,West,263,3.0,9.0,52,0.00,,,0.00,,2013-03-27 14:52:00,
2013-03-27 11:03:00,42.0,25.0,29.98,West,264,2.0,5.0,50,0.00,,,0.00,,2013-03-27 15:03:00,
2013-03-27 11:12:00,42.0,25.0,29.98,West,264,2.0,5.0,50,0.00,,,0.00,,2013-03-27 15:12:00,
2013-03-27 11:23:00,44.0,26.0,29.98,West,273,1.0,6.0,48,0.00,,,0.00,,2013-03-27 15:23:00,
2013-03-27 11:33:00,45.0,27.0,29.98,WNW,297,2.0,5.0,48,0.00,,,0.00,,2013-03-27 15:33:00,
2013-03-27 11:43:00,45.0,27.0,29.98,WNW,297,2.0,5.0,48,0.00,,,0.00,,2013-03-27 15:43:00,
2013-03-27 11:52:00,46.0,26.0,29.97,West,270,1.0,5.0,45,0.00,,,0.00,,2013-03-27 15:52:00,
2013-03-27 12:03:00,47.0,25.0,29.97,South,169,1.0,8.0,42,0.00,,,0.00,,2013-03-27 16:03:00,
2013-03-27 12:13:00,47.0,25.0,29.97,South,169,1.0,8.0,42,0.00,,,0.00,,2013-03-27 16:13:00,
2013-03-27 12:23:00,48.0,25.0,29.96,WSW,243,2.0,6.0,40,0.00,,,0.00,,2013-03-27 16:23:00,
2013-03-27 12:33:00,48.0,26.0,29.96,South,181,1.0,7.0,42,0.00,,,0.00,,2013-03-27 16:33:00,
2013-03-27 12:42:00,48.0,26.0,29.96,South,181,1.0,7.0,42,0.00,,,0.00,,2013-03-27 16:42:00,
2013-03-27 12:52:00,49.0,25.0,29.96,East,89,3.0,6.0,38,0.00,,,0.00,,2013-03-27 16:52:00,
2013-03-27 13:03:00,49.0,25.0,29.96,East,93,2.0,10.0,38,0.00,,,0.00,,2013-03-27 17:03:00,
2013-03-27 13:12:00,49.0,25.0,29.96,East,93,2.0,10.0,38,0.00,,,0.00,,2013-03-27 17:12:00,
2013-03-27 13:22:00,50.0,25.0,29.96,East,94,0.0,5.0,38,0.00,,,0.00,,2013-03-27 17:22:00,
2013-03-27 13:32:00,48.0,24.0,29.96,South,174,2.0,5.0,38,0.00,,,0.00,,2013-03-27 17:32:00,
2013-03-27 13:44:00,48.0,24.0,29.96,South,174,2.0,5.0,38,0.00,,,0.00,,2013-03-27 17:44:00,
2013-03-27 13:52:00,49.0,25.0,29.94,West,270,3.0,6.0,39,0.00,,,0.00,,2013-03-27 17:52:00,
2013-03-27 14:03:00,48.0,24.0,29.94,South,190,2.0,5.0,39,0.00,,,0.00,,2013-03-27 18:03:00,
2013-03-27 14:12:00,48.0,24.0,29.94,South,190,2.0,5.0,39,0.00,,,0.00,,2013-03-27 18:12:00,
2013-03-27 14:23:00,48.0,24.0,29.94,SSE,165,1.0,6.0,39,0.00,,,0.00,,2013-03-27 18:23:00,
2013-03-27 14:32:00,49.0,25.0,29.93,North,352,2.0,7.0,39,0.00,,,0.00,,2013-03-27 18:32:00,
2013-03-27 14:42:00,49.0,25.0,29.93,North,352,2.0,7.0,39,0.00,,,0.00,,2013-03-27 18:42:00,
2013-03-27 14:52:00,47.0,25.0,29.94,SE,141,0.0,5.0,41,0.00,,,0.00,,2013-03-27 18:52:00,
2013-03-27 15:03:00,46.0,25.0,29.94,SW,221,1.0,4.0,43,0.00,,,0.00,,2013-03-27 19:03:00,
2013-03-27 15:12:00,46.0,25.0,29.94,SW,221,1.0,4.0,43,0.00,,,0.00,,2013-03-27 19:12:00,
2013-03-27 15:22:00,47.0,24.0,29.95,North,359,1.0,4.0,40,0.00,,,0.00,,2013-03-27 19:22:00,
2013-03-27 15:32:00,47.0,25.0,29.95,WSW,252,0.0,6.0,42,0.00,,,0.00,,2013-03-27 19:32:00,
2013-03-27 15:42:00,47.0,25.0,29.95,WSW,252,0.0,6.0,42,0.00,,,0.00,,2013-03-27 19:42:00,
2013-03-27 15:52:00,47.0,26.0,29.95,South,174,2.0,6.0,43,0.00,,,0.00,,2013-03-27 19:52:00,
2013-03-27 16:03:00,46.0,24.0,29.95,NE,45,1.0,6.0,41,0.00,,,0.00,,2013-03-27 20:03:00,
2013-03-27 16:12:00,46.0,24.0,29.95,NE,45,1.0,6.0,41,0.00,,,0.00,,2013-03-27 20:12:00,
2013-03-27 16:22:00,46.0,24.0,29.95,SSE,160,1.0,4.0,42,0.00,,,0.00,,2013-03-27 20:22:00,
2013-03-27 16:32:00,47.0,26.0,29.95,East,82,0.0,5.0,43,0.00,,,0.00,,2013-03-27 20:32:00,
2013-03-27 16:42:00,47.0,26.0,29.95,East,82,0.0,5.0,43,0.00,,,0.00,,2013-03-27 20:42:00,
2013-03-27 16:52:00,47.0,25.0,29.96,ESE,106,1.0,6.0,41,0.00,,,0.00,,2013-03-27 20:52:00,
2013-03-27 17:02:00,47.0,25.0,29.96,SW,233,1.0,8.0,42,0.00,,,0.00,,2013-03-27 21:02:00,
2013-03-27 17:12:00,47.0,25.0,29.96,SW,233,1.0,8.0,42,0.00,,,0.00,,2013-03-27 21:12:00,
2013-03-27 17:22:00,46.0,25.0,29.96,WSW,256,1.0,4.0,43,0.00,,,0.00,,2013-03-27 21:22:00,
2013-03-27 17:32:00,46.0,26.0,29.97,SSW,198,1.0,5.0,46,0.00,,,0.00,,2013-03-27 21:32:00,
2013-03-27 17:43:00,46.0,26.0,29.97,SSW,198,1.0,5.0,46,0.00,,,0.00,,2013-03-27 21:43:00,
2013-03-27 17:52:00,46.0,27.0,29.97,SW,224,0.0,4.0,47,0.00,,,0.00,,2013-03-27 21:52:00,
2013-03-27 18:03:00,47.0,28.0,29.98,ENE,64,0.0,6.0,48,0.00,,,0.00,,2013-03-27 22:03:00,
2013-03-27 18:12:00,47.0,28.0,29.98,ENE,64,0.0,6.0,48,0.00,,,0.00,,2013-03-27 22:12:00,
2013-03-27 18:23:00,47.0,28.0,29.98,ENE,64,0.0,6.0,48,0.00,,,0.00,,2013-03-27 22:23:00,
2013-03-27 18:33:00,45.0,27.0,29.98,NE,52,0.0,4.0,49,0.00,,,0.00,,2013-03-27 22:33:00,
2013-03-27 18:42:00,45.0,27.0,29.98,NE,52,0.0,4.0,49,0.00,,,0.00,,2013-03-27 22:42:00,
2013-03-27 18:53:00,45.0,26.0,29.99,NE,50,0.0,3.0,47,0.00,,,0.00,,2013-03-27 22:53:00,
2013-03-27 19:02:00,44.0,25.0,29.99,ENE,64,0.0,2.0,47,0.00,,,0.00,,2013-03-27 23:02:00,
2013-03-27 19:12:00,44.0,25.0,29.99,ENE,64,0.0,2.0,47,0.00,,,0.00,,2013-03-27 23:12:00,
2013-03-27 19:22:00,44.0,26.0,30.00,ESE,118,0.0,1.0,48,0.00,,,0.00,,2013-03-27 23:22:00,
2013-03-27 19:32:00,43.0,26.0,30.01,South,186,0.0,5.0,50,0.00,,,0.00,,2013-03-27 23:32:00,
2013-03-27 19:42:00,43.0,26.0,30.01,South,186,0.0,5.0,50,0.00,,,0.00,,2013-03-27 23:42:00,
2013-03-27 19:52:00,42.0,26.0,30.01,SSE,165,0.0,1.0,52,0.00,,,0.00,,2013-03-27 23:52:00,
2013-03-27 20:02:00,42.0,26.0,30.02,WSW,248,0.0,1.0,53,0.00,,,0.00,,2013-03-28 00:02:00,
2013-03-27 20:12:00,42.0,26.0,30.02,WSW,248,0.0,1.0,53,0.00,,,0.00,,2013-03-28 00:12:00,
2013-03-27 20:22:00,41.0,26.0,30.02,SW,225,0.0,2.0,54,0.00,,,0.00,,2013-03-28 00:22:00,
2013-03-27 20:33:00,41.0,26.0,30.03,NNE,28,0.0,1.0,55,0.00,,,0.00,,2013-03-28 00:33:00,
2013-03-27 20:43:00,41.0,26.0,30.03,NNE,28,0.0,1.0,55,0.00,,,0.00,,2013-03-28 00:43:00,
2013-03-27 20:52:00,40.0,26.0,30.03,NNE,28,0.0,0.0,56,0.00,,,0.00,,2013-03-28 00:52:00,
2013-03-27 21:02:00,38.0,26.0,30.04,NNE,29,0.0,0.0,61,0.00,,,0.00,,2013-03-28 01:02:00,
2013-03-27 21:12:00,38.0,26.0,30.04,NNE,29,0.0,0.0,61,0.00,,,0.00,,2013-03-28 01:12:00,
2013-03-27 21:22:00,37.0,26.0,30.04,NNE,29,0.0,0.0,65,0.00,,,0.00,,2013-03-28 01:22:00,
2013-03-27 21:32:00,36.0,26.0,30.05,NNE,29,0.0,0.0,66,0.00,,,0.00,,2013-03-28 01:32:00,
2013-03-27 21:42:00,36.0,26.0,30.05,NNE,29,0.0,0.0,66,0.00,,,0.00,,2013-03-28 01:42:00,
2013-03-27 21:52:00,37.0,27.0,30.05,WSW,245,0.0,2.0,67,0.00,,,0.00,,2013-03-28 01:52:00,
2013-03-27 22:03:00,37.0,27.0,30.06,WSW,244,0.0,0.0,67,0.00,,,0.00,,2013-03-28 02:03:00,
2013-03-27 22:12:00,37.0,27.0,30.06,WSW,244,0.0,0.0,67,0.00,,,0.00,,2013-03-28 02:12:00,
2013-03-27 22:22:00,38.0,28.0,30.06,SSW,211,0.0,1.0,68,0.00,,,0.00,,2013-03-28 02:22:00,
2013-03-27 22:33:00,38.0,28.0,30.06,NE,41,1.0,5.0,68,0.00,,,0.00,,2013-03-28 02:33:00,
2013-03-27 22:42:00,38.0,28.0,30.06,NE,41,1.0,5.0,68,0.00,,,0.00,,2013-03-28 02:42:00,
2013-03-27 22:52:00,38.0,28.0,30.06,NE,41,1.0,5.0,68,0.00,,,0.00,,2013-03-28 02:52:00,
2013-03-27 23:02:00,39.0,30.0,30.07,East,80,0.0,2.0,70,0.00,,,0.00,,2013-03-28 03:02:00,
2013-03-27 23:12:00,39.0,30.0,30.07,East,80,0.0,2.0,70,0.00,,,0.00,,2013-03-28 03:12:00,
2013-03-27 23:22:00,38.0,29.0,30.07,East,90,1.0,2.0,71,0.00,,,0.00,,2013-03-28 03:22:00,
2013-03-27 23:33:00,38.0,30.0,30.07,West,271,1.0,2.0,72,0.00,,,0.00,,2013-03-28 03:33:00,
2013-03-27 23:43:00,38.0,30.0,30.07,West,271,1.0,2.0,72,0.00,,,0.00,,2013-03-28 03:43:00,
2013-03-27 23:52:00,38.0,30.0,30.07,SW,215,0.0,2.0,73,0.00,,,0.00,,2013-03-28 03:52:00,